sat.trackr.live / text

‹ back to catalog

STARLINK-5129

NORAD 54004 · 2022-125AS

PAYLOAD ACTIVE UNKNOWN

§ Identity

Operator
Country
US
Launch date
2022-10-05
Launch site
AFWTR
Launch vehicle
Mass (kg)
RCS (m²)

Purposes: comms

External: N2YO · Heavens-Above · Gunter

§ Orbital elements

Epoch: 2026-05-24T15:28:16.040640Z

Period
95.44 min
Inclination
53.2144°
Eccentricity
0.0001589
Mean motion
15.08835000 rev/d
Perigee alt
538.7 km
Apogee alt
540.9 km
Semi-major
6,917.9 km
B*
7.5366e-5
RAAN
232.8268°
Arg perigee
78.7381°
Mean anomaly
281.3789°
Rev number
20,093

§ Raw data

STARLINK-51291 54004U 22125AS  26144.64463010  .00000911  00000+0  75366-4 0  99972 54004  53.2144 232.8268 0001589  78.7381 281.3789 15.08835000200934

JSON: /api/v1/satellites/54004 · /tle

For live sub-satellite position, see the globe view (requires WebGL).

§ Visibility from observer

Set your observer location to see the next 7 days of passes ≥ 10°. The values pass through the URL so the page stays shareable.

No JS? Fill the form by hand. The geolocation button needs JavaScript.